Regional Weather Roundup
Issued by NWS Sioux Falls, SD

Home | Current Version | Previous Version | Graphics & Text | Print | Product List | Glossary On
Versions: 1 2 3 4 5 6 7 8 9 10 11 12 13 14 15 16 17 18 19 20 21 22 23 24 25 26 27 28 29 30 31 32 33 34 35 36 37 38 39 40 41 42 43 44 45 46 47 48 49 50
000
ASUS43 KFSD 271302
RWRFSD

WEATHER ROUNDUP FOR SE SOUTH DAKOTA/SW MINNESOTA/NW IOWA
NATIONAL WEATHER SERVICE SIOUX FALLS SD
800 AM CDT SUN MAY 27 2018

NOTE: "FAIR" INDICATES FEW OR NO CLOUDS BELOW 12,000 FEET WITH NO
SIGNIFICANT WEATHER AND OR OBSTRUCTIONS TO VISIBILITY.


SDZ038>040-050-052>070-271400-
SOUTHEAST SOUTH DAKOTA

CITY           SKY/WX    TMP DP  RH WIND       PRES   REMARKS
BROOKINGS      CLOUDY    70  55  59 SE7       29.83R
CHAMBERLAIN    CLOUDY    74  62  66 S10       29.75S
HURON          CLOUDY    72  58  61 S8        29.76R
MADISON        FAIR      70  57  64 S8        29.83R
MITCHELL       PTSUNNY   73  62  68 SE6       29.78R
SIOUX FALLS    CLOUDY    75  63  66 CALM      29.81R
WINNER         FAIR      74  57  55 S12       29.75R
YANKTON        SUNNY     71  61  70 SE3       29.80R
$$

MNZ071-072-080-081-089-090-097-098-271400-
SOUTHWEST MINNESOTA

CITY           SKY/WX    TMP DP  RH WIND       PRES   REMARKS
FAIRMONT       MOSUNNY   77  59  53 S5        29.84R
JACKSON        CLOUDY    72  57  60 S5        29.86R
LUVERNE        CLOUDY    68  55  64 CALM      29.85R
MARSHALL       CLOUDY    75  55  49 S9        29.81R
MONTEVIDEO     CLOUDY    70  55  60 S6        29.81S
PIPESTONE      CLOUDY    75  54  46 S10       29.83S
REDWOOD FALLS  CLOUDY    69  61  75 CALM      29.82R
TRACY          PTSUNNY   78  53  41 S7        29.82R
WINDOM         CLOUDY    73  48  40 S3        29.84R
WORTHINGTON    CLOUDY    79  54  41 S7        29.85R
$$

IAZ001>003-012>014-020>022-031-032-NEZ013-014-SDZ071-271400-
NORTHWEST IOWA

CITY           SKY/WX    TMP DP  RH WIND       PRES   REMARKS
CHEROKEE       CLOUDY    68  65  89 CALM      29.83R
DENISON        SUNNY     72  61  68 MISG      29.86R
ESTHERVILLE    CLOUDY    70  59  68 S3        29.84R
ORANGE CITY    CLOUDY    75  55  50 CALM      29.83R
SHELDON        CLOUDY    77  54  44 SE5       29.82R
SIOUX CITY     SUNNY     72  61  68 E3        29.81R
SPENCER        CLOUDY    74  63  68 E3        29.84R
STORM LAKE     CLOUDY    79  54  41 CALM      29.84R
$$

ABBREVIATIONS USED IN REMARKS
   TC - TEMPERATURE IN CELSIUS
  WCI - WIND CHILL INDEX
   HX - HEAT INDEX
  VSB - VISIBILITY




USA.gov is the U.S. government's official web portal to all federal, state and local government web resources and services.